User: anonymous   Login
Location: Asheville, NC
(35.6000°N, 82.5500°W)
Time: 22:52:23
(UTC-04:00)
Language:

NANOSAT C BR1 - Orbit

View from above orbital plane
View from above orbital plane
View from above satellite
View from above satellite

Ground track
Ground track

The orbit data is extracted from the following two-line orbital elements,

1 40024U 14033Q   18147.74555905  .00000216  00000-0  28564-4 0  9990
2 40024  97.9105  64.7108 0010802 245.9575 114.0512 14.89562380213834
Epoch (UTC): 27 May 2018 17:53:36
Eccentricity: 0.0010802
inclination: 97.9105°
perigee height: 592 km
apogee height: 607 km
right ascension of ascending node: 64.7108°
argument of perigee: 245.9575°
revolutions per day: 14.89562380
mean anomaly at epoch: 114.0512°
orbit number at epoch: 21383

The dashed part of the orbit path shows where the satellite is in the earth's shadow,  

DLR